Location: Riverton
(43.0250°N, 108.3790°W)
Time: 07:44:52
(UTC-06:00)

Amateur Radio Satellites - All Passes

Search period start: 01 October 2016 07:14
Search period end: 02 October 2016 07:14
Location: Riverton, 43.0250°N, 108.3790°W

Satellite Date Start Highest point End Downlink Frequencies (MHz)
Time Altitude Azimuth
GONETS M04 01 Oct 07:15:27 07:20:47 18° 76° (ENE) 07:26:08
CUSAT 1 01 Oct 07:18:05 07:24:42 36° 274° (W) 07:30:16 437.405
BRITE-PL 01 Oct 07:20:58 07:25:33 52° 288° (WNW) 07:29:48 437.365/2234.400
HORYU 2 01 Oct 07:22:36 07:26:31 30° 292° (WNW) 07:30:24 437.375
NOAA 15 01 Oct 07:34:55 07:40:16 85° 105° (ESE) 07:45:32 137.62
NOAA 18 01 Oct 07:36:14 07:41:38 56° 102° (ESE) 07:47:00 137.9125
HO-68 01 Oct 07:38:56 07:42:40 15° 88° (E) 07:46:23 435.675
CINEMA 3 01 Oct 07:40:39 07:41:37 11° 89° (E) 07:42:35 145.822/145.860
DANDE 01 Oct 07:40:52 07:49:04 58° 267° (W) 07:56:25 436.750
LilacSat-2 01 Oct 07:50:05 07:53:52 59° 286° (WNW) 07:57:41 437.200
RS-15 01 Oct 07:59:23 08:05:26 15° 266° (W) 08:11:27 29.354- 29.394
O/OREOS (USA 219) 01 Oct 07:59:45 08:04:02 38° 300° (WNW) 08:08:21 437.305
CUTE-I 01 Oct 08:03:37 08:08:56 66° 287° (WNW) 08:14:15 437.470
Cubesat XI-IV 01 Oct 08:04:42 08:10:01 65° 288° (WNW) 08:15:19 437.490
BEESAT 3 01 Oct 08:11:49 08:14:47 20° 43° (NE) 08:17:44 437.485
Cosmos 2499 01 Oct 08:16:40 08:22:50 34° 86° (E) 08:29:00 435.465 / 435.565
SEEDS 01 Oct 08:22:07 08:24:47 16° 91° (E) 08:27:26 437.485
CUTE 1.7 + AOD 2 01 Oct 08:27:00 08:30:38 26° 95° (E) 08:34:14 437.475
CANX-2 01 Oct 08:28:52 08:32:44 31° 96° (E) 08:36:33 2200.000
GOMX 1 01 Oct 08:29:42 08:33:09 24° 294° (WNW) 08:36:31 467.674
DOVE 4 01 Oct 08:31:10 08:35:13 50° 287° (WNW) 08:39:14 437.250
AAUSAT CUBESAT 2 01 Oct 08:34:47 08:36:06 11° 89° (E) 08:37:25 437.432
STRAND 1 01 Oct 08:40:32 08:44:48 27° 265° (W) 08:49:06 437.568
PRISM 01 Oct 09:01:33 09:05:38 58° 74° (ENE) 09:09:45 437.425
GONETS M04 01 Oct 09:07:23 09:16:14 86° 97° (E) 09:25:09
BEESAT 2 01 Oct 09:14:49 09:18:35 37° 50° (NE) 09:22:20 435.950
CINEMA 3 01 Oct 09:15:00 09:19:11 67° 285° (WNW) 09:23:27 145.822/145.860
NOAA 15 01 Oct 09:16:32 09:19:18 14° 302° (WNW) 09:22:03 137.62
NOAA 18 01 Oct 09:17:46 09:21:52 22° 299° (WNW) 09:25:59 137.9125
PHONESAT 2.4 01 Oct 09:18:48 09:20:28 14° 153° (SSE) 09:22:07 2401.200-2431.200
COMPASS 1 01 Oct 09:20:41 09:24:47 47° 99° (E) 09:28:50 437.405
HO-68 01 Oct 09:24:11 09:31:23 84° 106° (ESE) 09:38:33 435.675
DANDE 01 Oct 09:27:48 09:29:58 11° 287° (WNW) 09:32:06 436.750
ANTELSAT 01 Oct 09:38:11 09:41:14 19° 65° (ENE) 09:44:17 437.575/2403.000
FUNcube-1 01 Oct 09:43:05 09:46:46 26° 95° (E) 09:50:30 145.935
BEESAT 3 01 Oct 09:48:50 09:52:41 48° 241° (WSW) 09:56:30 437.485
CUBEBUG 2 01 Oct 09:56:27 10:00:48 88° 276° (W) 10:05:15 437.445
SEEDS 01 Oct 09:56:38 10:00:43 46° 288° (WNW) 10:04:47 437.485
TIGRISAT 01 Oct 09:56:54 10:00:32 28° 68° (ENE) 10:04:11 435.000
CUTE 1.7 + AOD 2 01 Oct 10:02:43 10:06:26 29° 291° (WNW) 10:10:08 437.475
CANX-2 01 Oct 10:04:57 10:08:27 24° 293° (WNW) 10:11:55 2200.000
UWE-3 01 Oct 10:06:20 10:10:42 79° 103° (ESE) 10:15:10 435.000/436.395/437.385
AAUSAT CUBESAT 2 01 Oct 10:07:50 10:11:59 64° 286° (WNW) 10:16:07 437.432
Cosmos 2499 01 Oct 10:09:04 10:15:45 43° 286° (WNW) 10:22:27 435.465 / 435.565
HUMSAT D 01 Oct 10:15:16 10:16:54 12° 90° (E) 10:18:32 437.325/437.525
Oscar 11 01 Oct 10:17:33 10:21:54 63° 100° (E) 10:26:13 145.826/435.025
ZACube-1 01 Oct 10:26:53 10:31:16 83° 103° (ESE) 10:35:43 437.345
AIST 2 01 Oct 10:33:40 10:35:57 14° 38° (NE) 10:38:14 435.215
UNISAT 6 01 Oct 10:38:05 10:42:20 85° 80° (E) 10:46:38 437.425
PRISM 01 Oct 10:39:32 10:41:18 12° 269° (W) 10:43:04 437.425
BEESAT 2 01 Oct 10:53:06 10:56:11 21° 247° (WSW) 10:59:15 435.950
PHONESAT 2.4 01 Oct 10:53:20 10:56:06 40° 169° (SSE) 10:58:52 2401.200-2431.200
DELFI C3 01 Oct 10:54:26 10:58:27 64° 101° (E) 11:02:24 145.870
COMPASS 1 01 Oct 10:57:19 10:59:57 16° 296° (WNW) 11:02:35 437.405
DUCHIFAT 1 01 Oct 10:58:42 11:01:25 17° 64° (ENE) 11:04:07 145.980
PCSat 01 Oct 10:59:33 11:00:25 10° 30° (NNE) 11:01:18 145.827
QB50P1 01 Oct 11:04:38 11:07:53 22° 66° (ENE) 11:11:08 145.935-145.965
GONETS M04 01 Oct 11:07:49 11:14:16 22° 298° (WNW) 11:20:46
HO-68 01 Oct 11:13:13 11:18:17 21° 305° (NW) 11:23:21 435.675
ANTELSAT 01 Oct 11:13:42 11:17:41 39° 262° (W) 11:21:42 437.575/2403.000
POPSAT HIP 1 01 Oct 11:18:04 11:21:43 30° 69° (ENE) 11:25:23 437.405
FUNcube-1 01 Oct 11:19:10 11:22:59 30° 291° (WNW) 11:26:51 145.935
NANOSAT C BR1 01 Oct 11:31:17 11:35:10 39° 71° (ENE) 11:39:05 145.865
JAS-2 01 Oct 11:31:46 11:38:07 45° 66° (ENE) 11:45:10 435.910
TIGRISAT 01 Oct 11:33:39 11:37:12 26° 265° (W) 11:40:46 435.000
UWE-3 01 Oct 11:45:11 11:46:34 11° 299° (WNW) 11:47:58 435.000/436.395/437.385
HUMSAT D 01 Oct 11:48:40 11:52:55 63° 285° (WNW) 11:57:09 437.325/437.525
Oscar 11 01 Oct 11:55:17 11:57:31 14° 298° (WNW) 11:59:44 145.826/435.025
ESTCUBE 1 01 Oct 11:57:15 12:00:58 25° 94° (E) 12:04:39 437.505/2401.250
QB50P2 01 Oct 11:58:14 12:02:26 90° 252° (WSW) 12:06:40 145.880/145.840
POLYITAN 1 01 Oct 12:00:25 12:04:36 90° 266° (W) 12:08:49 437.675
ZACube-1 01 Oct 12:05:49 12:06:55 11° 299° (WNW) 12:08:01 437.345
AIST 2 01 Oct 12:10:49 12:15:03 90° 339° (NNW) 12:19:15 435.215
BUGSAT 1 01 Oct 12:18:32 12:22:29 50° 73° (ENE) 12:26:25 437.445
PHONESAT 2.4 01 Oct 12:29:08 12:31:59 48° 185° (S) 12:34:49 2401.200-2431.200
DELFI C3 01 Oct 12:31:20 12:32:44 12° 298° (WNW) 12:34:09 145.870
AISAT 01 Oct 12:32:30 12:36:19 28° 96° (E) 12:40:06 437.250
DUCHIFAT 1 01 Oct 12:32:46 12:36:46 44° 261° (W) 12:40:46 145.980
Oscar 19 01 Oct 12:37:14 12:41:03 21° 63° (ENE) 12:44:54 437.125/150
QB50P1 01 Oct 12:39:41 12:43:28 33° 263° (W) 12:47:17 145.935-145.965
PCSat 01 Oct 12:40:08 12:45:19 43° 52° (NE) 12:50:28 145.827
50 SAT 01 Oct 12:46:41 12:50:06 35° 98° (E) 12:53:27 437.505
DX 1 01 Oct 12:53:57 12:57:43 28° 96° (E) 13:01:27 434.975-435.025
POPSAT HIP 1 01 Oct 12:54:05 12:57:30 24° 265° (W) 13:00:55 437.405
YUBILEINY 01 Oct 12:57:52 13:04:56 27° 65° (ENE) 13:11:57 435.215
Cosmos 2491 01 Oct 13:03:25 13:05:11 11° 71° (ENE) 13:06:58 435.465 / 435.565
NANOSAT C BR1 01 Oct 13:08:10 13:11:03 18° 267° (W) 13:13:57 145.865
CUBEBUG 1 01 Oct 13:09:00 13:13:21 90° 216° (SW) 13:17:39 437.445
VELOX 1 01 Oct 13:15:19 13:19:44 79° 102° (ESE) 13:24:07 145.980
Cosmos 2504 01 Oct 13:16:49 13:18:52 11° 57° (ENE) 13:20:57 435.465 / 435.565
JAS-2 01 Oct 13:17:06 13:23:13 37° 267° (W) 13:30:02 435.910
AUBIESAT-1 01 Oct 13:24:50 13:27:46 29° 103° (ESE) 13:30:45 437.475
SPROUT 01 Oct 13:30:37 13:34:52 67° 101° (E) 13:39:06 437.525
ESTCUBE 1 01 Oct 13:33:44 13:37:49 34° 291° (WNW) 13:41:52 437.505/2401.250
ITAMSAT 1 01 Oct 13:41:42 13:43:25 12° 56° (NE) 13:45:08 435.822/435.867
UKube-1 01 Oct 13:53:01 13:57:21 85° 287° (WNW) 14:01:39 .
AO-7 01 Oct 13:54:59 14:00:37 21° 49° (NE) 14:06:14 29.400- 29.500
BUGSAT 1 01 Oct 13:56:04 13:58:08 14° 269° (W) 14:00:12 437.445
PHONESAT 2.4 01 Oct 14:05:24 14:07:43 21° 202° (SSW) 14:10:03 2401.200-2431.200
M-CUBED/EXP-1 PRIME 01 Oct 14:05:40 14:08:53 56° 291° (WNW) 14:12:07 437.505
Gurwin Techsat 1B 01 Oct 14:05:50 14:11:03 63° 72° (ENE) 14:16:19 435.225
AISAT 01 Oct 14:09:00 14:12:43 27° 293° (WNW) 14:16:25 437.250
Oscar 19 01 Oct 14:14:55 14:19:59 54° 260° (W) 14:25:06 437.125/150
50 SAT 01 Oct 14:21:00 14:23:18 16° 294° (WNW) 14:25:35 437.505
PCSat 01 Oct 14:23:53 14:28:31 29° 251° (WSW) 14:33:07 145.827
DX 1 01 Oct 14:30:09 14:33:49 27° 293° (WNW) 14:37:29 434.975-435.025
TISAT 1 01 Oct 14:36:10 14:40:20 68° 102° (ESE) 14:44:29 437.305
Cosmos 2491 01 Oct 14:51:27 15:00:02 62° 91° (E) 15:08:42 435.465 / 435.565
YUBILEINY 01 Oct 14:53:54 15:02:33 71° 266° (W) 15:11:10 435.215
VELOX 1 01 Oct 14:54:07 14:55:33 11° 300° (WNW) 14:57:01 145.980
SO-50 01 Oct 14:59:38 15:04:27 76° 122° (ESE) 15:09:15 436.795
AUBIESAT-1 01 Oct 14:59:57 15:02:04 16° 299° (WNW) 15:04:12 437.475
Cosmos 2504 01 Oct 15:06:25 15:13:52 62° 79° (ENE) 15:21:49 435.465 / 435.565
SPROUT 01 Oct 15:08:26 15:10:15 13° 298° (WNW) 15:12:05 437.525
ITAMSAT 1 01 Oct 15:16:51 15:22:01 80° 73° (ENE) 15:27:14 435.822/435.867
ITUPSAT 1 01 Oct 15:18:10 15:22:35 35° 97° (E) 15:27:00 437.325
SWISSCUBE 01 Oct 15:28:46 15:33:28 51° 100° (E) 15:38:08 437.505
BEESAT 01 Oct 15:41:14 15:46:00 62° 102° (ESE) 15:50:44 436.000
AIST 1 01 Oct 15:43:41 15:47:16 25° 73° (ENE) 15:50:50
AO-7 01 Oct 15:43:51 15:52:10 81° 69° (ENE) 16:00:31 29.400- 29.500
Gurwin Techsat 1B 01 Oct 15:48:00 15:51:26 17° 269° (W) 15:54:53 435.225
TISAT 1 01 Oct 16:13:51 16:15:25 12° 299° (WNW) 16:16:59 437.305
KKS-1 01 Oct 16:26:30 16:29:44 20° 93° (E) 16:32:58 437.445
O/OREOS (USA 219) 01 Oct 16:29:17 16:33:47 51° 63° (ENE) 16:38:14 437.305
MOZHAYETS 4 01 Oct 16:30:47 16:35:06 37° 97° (E) 16:39:24
SO-50 01 Oct 16:41:59 16:45:28 19° 321° (NW) 16:48:54 436.795
HORYU 2 01 Oct 16:45:06 16:48:51 28° 67° (ENE) 16:52:39 437.375
STARS 01 Oct 16:48:55 16:51:40 16° 92° (E) 16:54:25 437.465
Cosmos 2491 01 Oct 16:49:52 16:57:26 31° 293° (WNW) 17:05:05 435.465 / 435.565
BRITE-PL 01 Oct 16:53:55 16:58:30 26° 66° (ENE) 17:02:58 437.365/2234.400
YUBILEINY 01 Oct 16:54:05 16:57:37 13° 287° (WNW) 17:01:11 435.215
ITUPSAT 1 01 Oct 16:56:15 17:00:16 27° 294° (WNW) 17:04:17 437.325
ITAMSAT 1 01 Oct 16:59:51 17:02:06 13° 271° (W) 17:04:21 435.822/435.867
Cosmos 2504 01 Oct 17:00:44 17:06:43 26° 276° (W) 17:13:00 435.465 / 435.565
SWISSCUBE 01 Oct 17:07:28 17:10:52 19° 297° (WNW) 17:14:15 437.505
NOAA 15 01 Oct 17:17:59 17:21:53 21° 62° (ENE) 17:25:48 137.62
BEESAT 01 Oct 17:20:18 17:23:17 17° 299° (WNW) 17:26:16 436.000
AIST 1 01 Oct 17:21:14 17:24:48 26° 271° (W) 17:28:22
NOAA 18 01 Oct 17:25:31 17:29:01 18° 59° (ENE) 17:32:32 137.9125
AO-7 01 Oct 17:39:40 17:45:47 22° 268° (W) 17:51:55 29.400- 29.500
CUTE-I 01 Oct 17:47:22 17:51:57 31° 66° (ENE) 17:56:33 437.470
Cubesat XI-IV 01 Oct 17:48:35 17:53:11 31° 66° (ENE) 17:57:49 437.490
GOMX 1 01 Oct 17:59:12 18:04:10 43° 71° (ENE) 18:08:54 467.674
RS-15 01 Oct 18:00:07 18:07:17 19° 96° (E) 18:14:37 29.354- 29.394
DOVE 4 01 Oct 18:00:48 18:04:11 19° 65° (ENE) 18:07:28 437.250
CUBESAT XI-V 01 Oct 18:01:52 18:06:22 44° 98° (E) 18:10:48 437.345
KKS-1 01 Oct 18:02:19 18:06:28 40° 290° (WNW) 18:10:36 437.445
Cosmos 2499 01 Oct 18:06:31 18:09:51 13° 59° (ENE) 18:13:16 435.465 / 435.565
MOZHAYETS 4 01 Oct 18:08:20 18:12:04 24° 294° (WNW) 18:15:47
O/OREOS (USA 219) 01 Oct 18:09:48 18:12:45 17° 260° (W) 18:15:41 437.305
HO-68 01 Oct 18:10:15 18:13:51 15° 50° (NE) 18:17:26 435.675
HORYU 2 01 Oct 18:21:34 18:25:21 28° 264° (W) 18:29:11 437.375
STARS 01 Oct 18:24:04 18:28:16 48° 289° (WNW) 18:32:29 437.465
BRITE-PL 01 Oct 18:31:12 18:36:41 48° 262° (W) 18:42:01 437.365/2234.400
LilacSat-2 01 Oct 18:32:31 18:36:15 73° 77° (ENE) 18:40:03 437.200
CUSAT 1 01 Oct 18:36:15 18:42:29 43° 89° (E) 18:49:43 437.405
CINEMA 3 01 Oct 18:43:16 18:45:03 12° 62° (ENE) 18:46:48 145.822/145.860
NOAA 15 01 Oct 18:56:02 19:01:14 56° 259° (W) 19:06:29 137.62
NOAA 18 01 Oct 19:03:38 19:09:05 72° 257° (WSW) 19:14:34 137.9125
DANDE 01 Oct 19:07:21 19:12:09 28° 83° (E) 19:18:00 436.750
STRAND 1 01 Oct 19:12:26 19:14:14 12° 88° (E) 19:16:01 437.568
ISS 01 Oct 19:13:50 19:16:51 37° 139° (SE) 19:19:54 145.825
SEEDS 01 Oct 19:15:32 19:17:37 13° 62° (ENE) 19:19:42 437.485
GONETS M04 01 Oct 19:16:49 19:25:14 46° 73° (ENE) 19:33:30
CUTE 1.7 + AOD 2 01 Oct 19:20:50 19:24:03 21° 66° (ENE) 19:27:18 437.475
CANX-2 01 Oct 19:22:39 19:26:09 25° 68° (ENE) 19:29:40 2200.000
CUTE-I 01 Oct 19:27:01 19:31:53 36° 263° (W) 19:36:47 437.470
Cubesat XI-IV 01 Oct 19:28:18 19:33:09 36° 263° (W) 19:38:03 437.490
DOVE 4 01 Oct 19:36:49 19:41:35 50° 261° (W) 19:46:06 437.250
GOMX 1 01 Oct 19:38:02 19:42:20 25° 266° (W) 19:46:30 467.674
CUBESAT XI-V 01 Oct 19:39:58 19:43:26 21° 295° (WNW) 19:46:53 437.345
HO-68 01 Oct 19:53:12 20:00:17 68° 70° (ENE) 20:07:24 435.675
Cosmos 2499 01 Oct 19:56:47 20:04:26 68° 80° (E) 20:12:39 435.465 / 435.565
RS-15 01 Oct 20:05:57 20:17:31 77° 119° (ESE) 20:29:42 29.354- 29.394
COMPASS 1 01 Oct 20:12:07 20:15:57 35° 70° (ENE) 20:19:48 437.405
CINEMA 3 01 Oct 20:17:19 20:21:42 67° 259° (W) 20:25:56 145.822/145.860
CUSAT 1 01 Oct 20:18:04 20:24:29 42° 291° (WNW) 20:31:53 437.405
FUNcube-1 01 Oct 20:39:59 20:43:09 22° 67° (ENE) 20:46:21 145.935
AO-85 01 Oct 20:40:22 20:45:33 71° 121° (ESE) 20:50:24 145.980
SEEDS 01 Oct 20:48:38 20:52:48 61° 260° (W) 20:57:01 437.485
DANDE 01 Oct 20:48:46 20:54:21 51° 288° (WNW) 21:01:33 436.750
STRAND 1 01 Oct 20:48:52 20:54:03 85° 284° (WNW) 20:59:13 437.568
ISS 01 Oct 20:50:20 20:53:21 34° 337° (NNW) 20:56:24 145.825
CUBEBUG 2 01 Oct 20:55:24 20:59:34 84° 74° (ENE) 21:03:43 437.445
CUTE 1.7 + AOD 2 01 Oct 20:55:47 20:59:40 35° 263° (W) 21:03:37 437.475
CANX-2 01 Oct 20:58:11 21:01:54 29° 264° (W) 21:05:39 2200.000
AAUSAT CUBESAT 2 01 Oct 20:58:20 21:02:31 88° 261° (W) 21:06:44 437.432
UWE-3 01 Oct 21:04:11 21:08:18 68° 74° (ENE) 21:12:25 435.000/436.395/437.385
Oscar 11 01 Oct 21:12:54 21:17:05 52° 73° (ENE) 21:21:18 145.826/435.025
GONETS M04 01 Oct 21:13:54 21:21:56 41° 274° (W) 21:29:53
ZACube-1 01 Oct 21:23:28 21:27:34 70° 76° (ENE) 21:31:44 437.345
DELFI C3 01 Oct 21:40:50 21:44:36 41° 72° (ENE) 21:48:24 145.870
HO-68 01 Oct 21:43:02 21:48:33 24° 268° (W) 21:54:06 435.675
COMPASS 1 01 Oct 21:48:30 21:51:35 20° 267° (W) 21:54:44 437.405
Cosmos 2499 01 Oct 21:51:01 21:56:55 25° 277° (W) 22:03:09 435.465 / 435.565
SO-50 01 Oct 21:51:05 21:53:48 15° 35° (NE) 21:56:31 436.795
FUNcube-1 01 Oct 22:15:32 22:19:14 32° 264° (W) 22:22:59 145.935
PRISM 01 Oct 22:17:11 22:21:21 84° 105° (ESE) 22:25:26 437.425
RS-15 01 Oct 22:20:12 22:31:12 41° 325° (NW) 22:42:41 29.354- 29.394
AO-85 01 Oct 22:22:39 22:26:26 21° 319° (NW) 22:30:02 145.980
ISS 01 Oct 22:28:11 22:30:32 18° 357° (N) 22:32:52 145.825
UNISAT 6 01 Oct 22:29:32 22:32:27 17° 92° (E) 22:35:22 437.425
STRAND 1 01 Oct 22:30:23 22:32:26 12° 303° (WNW) 22:34:28 437.568
HUMSAT D 01 Oct 22:40:25 22:44:30 83° 260° (W) 22:48:40 437.325/437.525
Oscar 11 01 Oct 22:51:09 22:53:32 14° 269° (W) 22:55:56 145.826/435.025
ESTCUBE 1 01 Oct 22:57:37 23:01:23 26° 67° (ENE) 23:05:09 437.505/2401.250
ANTELSAT 01 Oct 23:03:46 23:07:55 37° 98° (E) 23:12:09 437.575/2403.000
DELFI C3 01 Oct 23:17:05 23:19:37 16° 268° (W) 23:22:10 145.870
M-CUBED/EXP-1 PRIME 01 Oct 23:19:35 23:22:08 17° 62° (ENE) 23:24:35 437.505
TIGRISAT 01 Oct 23:22:51 23:27:14 56° 100° (E) 23:31:42 435.000
50 SAT 01 Oct 23:24:41 23:27:17 19° 67° (ENE) 23:29:54 437.505
SO-50 01 Oct 23:30:25 23:35:01 85° 56° (NE) 23:39:30 436.795
AISAT 01 Oct 23:30:37 23:34:28 29° 68° (ENE) 23:38:19 437.250
BEESAT 3 01 Oct 23:40:36 23:43:31 20° 113° (ESE) 23:46:28 437.485
QB50P2 01 Oct 23:43:42 23:45:52 14° 91° (E) 23:48:02 145.880/145.840
POLYITAN 1 01 Oct 23:45:50 23:48:02 14° 91° (E) 23:50:12 437.675
DX 1 01 Oct 23:50:16 23:54:01 29° 67° (ENE) 23:57:46 434.975-435.025
ISS 02 Oct 00:05:00 00:07:48 25° 17° (NNE) 00:10:36 145.825
UNISAT 6 02 Oct 00:05:07 00:09:24 49° 288° (WNW) 00:13:46 437.425
CUBEBUG 1 02 Oct 00:05:20 00:09:45 83° 77° (ENE) 00:14:10 437.445
AUBIESAT-1 02 Oct 00:11:08 00:14:55 50° 69° (ENE) 00:18:28 437.475
VELOX 1 02 Oct 00:13:04 00:17:31 78° 75° (ENE) 00:21:58 145.980
DUCHIFAT 1 02 Oct 00:16:02 00:19:32 25° 95° (E) 00:23:00 145.980
QB50P1 02 Oct 00:23:02 00:26:54 34° 97° (E) 00:30:45 145.935-145.965
SPROUT 02 Oct 00:24:41 00:28:50 56° 74° (ENE) 00:33:01 437.525
JAS-2 02 Oct 00:25:00 00:32:16 40° 94° (E) 00:39:03 435.910
ESTCUBE 1 02 Oct 00:33:58 00:38:03 32° 264° (W) 00:42:09 437.505/2401.250
POPSAT HIP 1 02 Oct 00:36:51 00:40:57 48° 100° (E) 00:45:02 437.405
RS-15 02 Oct 00:38:37 00:48:19 26° 359° (N) 00:58:09 29.354- 29.394
ANTELSAT 02 Oct 00:40:58 00:44:26 23° 294° (WNW) 00:47:57 437.575/2403.000
BEESAT 2 02 Oct 00:44:35 00:48:24 49° 119° (ESE) 00:52:15 435.950
UKube-1 02 Oct 00:47:59 00:52:19 90° 308° (NW) 00:56:40 .
NANOSAT C BR1 02 Oct 00:49:51 00:54:03 65° 102° (ESE) 00:58:13 145.865
M-CUBED/EXP-1 PRIME 02 Oct 00:52:40 00:56:27 39° 255° (WSW) 00:59:58 437.505
50 SAT 02 Oct 00:57:22 01:00:35 29° 263° (W) 01:03:49 437.505
TIGRISAT 02 Oct 01:00:51 01:03:30 16° 297° (WNW) 01:06:11 435.000
Cosmos 2491 02 Oct 01:00:57 01:08:41 32° 68° (ENE) 01:16:19 435.465 / 435.565
AISAT 02 Oct 01:07:06 01:10:53 27° 264° (W) 01:14:42 437.250
SO-50 02 Oct 01:13:38 01:14:45 11° 253° (WSW) 01:15:51 436.795
BEESAT 3 02 Oct 01:17:16 01:20:56 37° 310° (NW) 01:24:38 437.485
QB50P2 02 Oct 01:17:51 01:21:59 53° 287° (WNW) 01:26:06 145.880/145.840
POLYITAN 1 02 Oct 01:20:00 01:24:08 53° 287° (WNW) 01:28:16 437.675
DX 1 02 Oct 01:26:25 01:30:09 27° 264° (W) 01:33:55 434.975-435.025
TISAT 1 02 Oct 01:28:21 01:32:26 56° 73° (ENE) 01:36:32 437.305
BUGSAT 1 02 Oct 01:34:20 01:38:22 77° 101° (ESE) 01:42:24 437.445
ISS 02 Oct 01:41:16 01:44:33 72° 215° (SW) 01:47:49 145.825
AUBIESAT-1 02 Oct 01:47:57 01:49:34 12° 262° (W) 01:51:09 437.475
DUCHIFAT 1 02 Oct 01:51:35 01:55:11 29° 292° (WNW) 01:58:48 145.980
VELOX 1 02 Oct 01:53:58 01:54:30 10° 271° (W) 01:55:01 145.980
QB50P1 02 Oct 01:59:15 02:02:28 22° 294° (WNW) 02:05:42 145.935-145.965
YUBILEINY 02 Oct 02:00:52 02:07:58 29° 82° (E) 02:15:02 435.215
SPROUT 02 Oct 02:03:03 02:05:08 13° 270° (W) 02:07:11 437.525
JAS-2 02 Oct 02:09:53 02:17:19 47° 294° (WNW) 02:24:19 435.910
AIST 2 02 Oct 02:10:53 02:13:08 14° 110° (ESE) 02:15:24 435.215
POPSAT HIP 1 02 Oct 02:13:43 02:16:21 16° 296° (WNW) 02:18:59 437.405
Gurwin Techsat 1B 02 Oct 02:21:44 02:25:54 23° 93° (E) 02:30:03 435.225
BEESAT 2 02 Oct 02:23:33 02:26:28 19° 317° (NW) 02:29:25 435.950
Oscar 19 02 Oct 02:25:26 02:30:26 50° 100° (E) 02:35:24 437.125/150
ITUPSAT 1 02 Oct 02:25:37 02:30:09 46° 70° (ENE) 02:34:44 437.325
NANOSAT C BR1 02 Oct 02:27:26 02:29:15 13° 298° (WNW) 02:31:03 145.865
SWISSCUBE 02 Oct 02:35:53 02:40:35 66° 73° (ENE) 02:45:21 437.505
BEESAT 02 Oct 02:48:17 02:53:02 78° 75° (ENE) 02:57:50 436.000
RS-15 02 Oct 02:54:11 03:05:35 40° 33° (NNE) 03:16:51 29.354- 29.394
Cosmos 2491 02 Oct 02:57:23 03:06:02 60° 269° (W) 03:14:35 435.465 / 435.565
TISAT 1 02 Oct 03:06:31 03:08:25 13° 269° (W) 03:10:20 437.305
PCSat 02 Oct 03:23:07 03:27:49 31° 110° (ESE) 03:32:32 145.827
KKS-1 02 Oct 03:25:31 03:28:53 21° 65° (ENE) 03:32:15 437.445
ITAMSAT 1 02 Oct 03:29:14 03:33:36 26° 95° (E) 03:37:56 435.822/435.867
AO-85 02 Oct 03:33:01 03:34:40 12° 33° (NNE) 03:36:16 145.980
MOZHAYETS 4 02 Oct 03:33:23 03:37:38 39° 70° (ENE) 03:41:54
AO-7 02 Oct 03:45:24 03:51:51 24° 93° (E) 03:58:15 29.400- 29.500
Cosmos 2504 02 Oct 03:46:29 03:53:25 48° 90° (E) 04:00:13 435.465 / 435.565
STARS 02 Oct 03:46:38 03:49:32 17° 63° (ENE) 03:52:24 437.465
AIST 2 02 Oct 03:47:06 03:51:08 57° 307° (NW) 03:55:14 435.215
YUBILEINY 02 Oct 03:55:24 04:04:05 64° 282° (WNW) 04:12:48 435.215
JAS-2 02 Oct 03:58:37 04:00:22 11° 314° (NW) 04:02:08 435.910
Gurwin Techsat 1B 02 Oct 04:00:59 04:06:04 48° 290° (WNW) 04:11:09 435.225
ITUPSAT 1 02 Oct 04:04:44 04:08:13 20° 267° (W) 04:11:43 437.325
Oscar 19 02 Oct 04:05:31 04:09:25 22° 297° (WNW) 04:13:17 437.125/150
AIST 1 02 Oct 04:15:08 04:17:37 15° 85° (E) 04:20:07
SWISSCUBE 02 Oct 04:16:24 04:18:50 14° 270° (W) 04:21:17 437.505
BEESAT 02 Oct 04:29:51 04:31:23 11° 271° (W) 04:32:55 436.000
Cosmos 2491 02 Oct 04:59:52 05:00:49 10° 290° (WNW) 05:01:47 435.465 / 435.565
KKS-1 02 Oct 05:01:02 05:05:12 39° 262° (W) 05:09:22 437.445
CUBESAT XI-V 02 Oct 05:05:43 05:10:13 48° 72° (ENE) 05:14:46 437.345
PCSat 02 Oct 05:05:58 05:11:04 41° 308° (NW) 05:16:12 145.827
RS-15 02 Oct 05:07:08 05:19:34 83° 240° (WSW) 05:31:40 29.354- 29.394
ITAMSAT 1 02 Oct 05:08:17 05:13:11 41° 291° (WNW) 05:18:03 435.822/435.867
CUSAT 1 02 Oct 05:10:15 05:16:57 34° 66° (ENE) 05:22:34 437.405
MOZHAYETS 4 02 Oct 05:11:23 05:14:55 22° 267° (W) 05:18:29
AO-85 02 Oct 05:11:46 05:15:57 73° 55° (NE) 05:19:52 145.980
STARS 02 Oct 05:21:16 05:25:30 48° 260° (W) 05:29:46 437.465
AIST 2 02 Oct 05:30:05 05:30:32 10° 327° (NNW) 05:30:59 435.215
AO-7 02 Oct 05:37:03 05:45:21 75° 292° (WNW) 05:53:36 29.400- 29.500
Cosmos 2504 02 Oct 05:40:43 05:47:01 31° 290° (WNW) 05:53:16 435.465 / 435.565
DANDE 02 Oct 05:43:38 05:50:56 32° 65° (ENE) 05:57:39 436.750
AIST 1 02 Oct 05:50:33 05:54:47 48° 282° (WNW) 05:59:01
YUBILEINY 02 Oct 05:59:01 06:02:55 13° 305° (NW) 06:06:51 435.215
CUTE-I 02 Oct 06:06:23 06:06:57 10° 87° (E) 06:07:31 437.470
Cubesat XI-IV 02 Oct 06:07:29 06:08:23 10° 87° (E) 06:09:17 437.490
HORYU 2 02 Oct 06:10:38 06:14:58 48° 100° (E) 06:19:17 437.375
STRAND 1 02 Oct 06:28:22 06:32:01 20° 62° (ENE) 06:35:43 437.568
BRITE-PL 02 Oct 06:35:45 06:40:20 53° 99° (E) 06:44:35 437.365/2234.400
O/OREOS (USA 219) 02 Oct 06:42:17 06:46:41 49° 108° (ESE) 06:51:08 437.305
CUBESAT XI-V 02 Oct 06:44:34 06:47:51 19° 268° (W) 06:51:09 437.345
CUSAT 1 02 Oct 06:52:10 06:59:13 47° 270° (W) 07:04:58 437.405
